Location: Hurstbourne Priors
(51.2000°N, 1.3667°W)
Time: 19:54:26
(UTC+00:00)

Transit 4A - Pass Details

Date: 21 April 2021
Orbit: 870 x 974 km, 66.8° (Epoch: 09 May)

Event Time Altitude Azimuth Distance (km) Brightness Sun altitude
Rises 06:27:24 0° 321° (NW) 3,543 10.6 12.9°
Reaches altitude 10° 06:30:06 10° 328° (NNW) 2,583 10.0 13.3°
Maximum altitude 06:35:45 42° 39° (NE) 1,242 9.3 14.2°
Drops below altitude 10° 06:41:16 10° 110° (ESE) 2,526 11.8 15.1°
Sets 06:43:52 0° 117° (ESE) 3,455 12.0 15.5°
